When you browse on this site, cookies collect data to enhance your experience and personalize the content and advertising you see.
Visit our Privacy Policy to learn more. By continuing to use the site, you agree to this use of cookies and data.

Hourly Weather Konstantyna

Today, 13 August, Thursday

Time Temperature Precipitation Wind Pressure Humidity
00:00 +30°C° 0 mm 2 mps 710 mmHg 33%
01:00 +30°C° 0 mm 2 mps 710 mmHg 34%
02:00 +30°C° 0 mm 2 mps 710 mmHg 35%
03:00 +29°C° 0 mm 2 mps 709 mmHg 35%
04:00 +30°C° 0 mm 2 mps 710 mmHg 34%
05:00 +30°C° 0 mm 2 mps 711 mmHg 33%
06:00 +31°C° 0 mm 2 mps 711 mmHg 32%
07:00 +34°C° 0 mm 2 mps 711 mmHg 28%
08:00 +37°C° 0 mm 3 mps 712 mmHg 24%
09:00 +39°C° 0 mm 3 mps 712 mmHg 19%
10:00 +40°C° 0 mm 3 mps 712 mmHg 17%
11:00 +42°C° 0 mm 3 mps 713 mmHg 15%
12:00 +44°C° 0 mm 3 mps 713 mmHg 14%
13:00 +43°C° 0 mm 3 mps 712 mmHg 16%
14:00 +42°C° 0 mm 4 mps 712 mmHg 19%
15:00 +41°C° 0 mm 4 mps 711 mmHg 21%
16:00 +40°C° 0.3 mm 4 mps 712 mmHg 24%
17:00 +37°C° 0.3 mm 4 mps 712 mmHg 26%
18:00 +35°C° 0.3 mm 4 mps 712 mmHg 28%
19:00 +34°C° 0.2 mm 3 mps 712 mmHg 33%
20:00 +31°C° 0.2 mm 3 mps 712 mmHg 39%
21:00 +30°C° 0.2 mm 2 mps 712 mmHg 44%
22:00 +30°C° 0 mm 2 mps 712 mmHg 43%
23:00 +30°C° 0 mm 2 mps 711 mmHg 43%

Tomorrow, 14 August, Friday

Time Temperature Precipitation Wind Pressure Humidity
00:00 +29°C° 0 mm 2 mps 711 mmHg 42%
01:00 +29°C° 0 mm 2 mps 711 mmHg 40%
02:00 +29°C° 0 mm 2 mps 710 mmHg 39%
03:00 +29°C° 0 mm 2 mps 710 mmHg 38%
04:00 +30°C° 0 mm 2 mps 710 mmHg 36%
05:00 +30°C° 0 mm 2 mps 711 mmHg 35%
06:00 +31°C° 0 mm 1 mps 711 mmHg 34%
07:00 +34°C° 0 mm 2 mps 712 mmHg 30%
08:00 +36°C° 0 mm 2 mps 712 mmHg 26%
09:00 +38°C° 0 mm 2 mps 712 mmHg 22%
10:00 +39°C° 0 mm 3 mps 712 mmHg 19%
11:00 +42°C° 0 mm 4 mps 712 mmHg 16%
12:00 +44°C° 0 mm 6 mps 712 mmHg 14%
13:00 +42°C° 0 mm 6 mps 712 mmHg 17%
14:00 +41°C° 0 mm 5 mps 711 mmHg 20%
15:00 +39°C° 0 mm 5 mps 711 mmHg 23%
16:00 +36°C° 0.2 mm 5 mps 711 mmHg 29%
17:00 +33°C° 0.2 mm 4 mps 711 mmHg 35%
18:00 +30°C° 0.2 mm 4 mps 711 mmHg 42%
19:00 +30°C° 0.1 mm 3 mps 711 mmHg 40%
20:00 +30°C° 0.1 mm 2 mps 712 mmHg 38%
21:00 +31°C° 0.1 mm 2 mps 712 mmHg 36%
22:00 +31°C° 0 mm 2 mps 712 mmHg 34%
23:00 +31°C° 0 mm 3 mps 711 mmHg 33%

Day after tomorrow, 15 August, Saturday

Time Temperature Precipitation Wind Pressure Humidity
00:00 +31°C° 0 mm 3 mps 711 mmHg 32%
01:00 +30°C° 0 mm 3 mps 710 mmHg 34%
02:00 +29°C° 0 mm 3 mps 710 mmHg 37%
03:00 +28°C° 0 mm 2 mps 709 mmHg 39%
04:00 +29°C° 0 mm 2 mps 710 mmHg 38%
05:00 +29°C° 0 mm 2 mps 710 mmHg 37%
06:00 +30°C° 0 mm 1 mps 710 mmHg 36%
07:00 +32°C° 0 mm 2 mps 711 mmHg 30%
08:00 +36°C° 0 mm 3 mps 711 mmHg 24%
09:00 +38°C° 0 mm 4 mps 712 mmHg 18%
10:00 +40°C° 0 mm 4 mps 712 mmHg 17%
11:00 +41°C° 0 mm 5 mps 712 mmHg 16%
12:00 +42°C° 0 mm 6 mps 712 mmHg 15%
13:00 +41°C° 0 mm 5 mps 711 mmHg 16%
14:00 +41°C° 0 mm 4 mps 711 mmHg 17%
15:00 +39°C° 0 mm 3 mps 710 mmHg 18%
16:00 +38°C° 0 mm 4 mps 710 mmHg 20%
17:00 +37°C° 0 mm 4 mps 710 mmHg 22%
18:00 +35°C° 0 mm 4 mps 710 mmHg 25%
19:00 +34°C° 0 mm 4 mps 710 mmHg 27%
20:00 +33°C° 0 mm 4 mps 710 mmHg 28%
21:00 +31°C° 0 mm 3 mps 710 mmHg 30%
22:00 +31°C° 0 mm 3 mps 710 mmHg 32%
23:00 +30°C° 0 mm 3 mps 709 mmHg 33%

16 August, Sunday

Time Temperature Precipitation Wind Pressure Humidity
00:00 +29°C° 0 mm 2 mps 709 mmHg 35%
01:00 +29°C° 0 mm 2 mps 709 mmHg 35%
02:00 +29°C° 0 mm 2 mps 708 mmHg 36%
03:00 +28°C° 0 mm 2 mps 708 mmHg 36%
04:00 +29°C° 0 mm 2 mps 708 mmHg 35%
05:00 +29°C° 0 mm 2 mps 708 mmHg 34%
06:00 +30°C° 0 mm 1 mps 709 mmHg 32%
07:00 +34°C° 0 mm 2 mps 709 mmHg 26%
08:00 +37°C° 0 mm 4 mps 710 mmHg 21%
09:00 +41°C° 0 mm 5 mps 711 mmHg 15%
10:00 +42°C° 0 mm 5 mps 711 mmHg 14%
11:00 +43°C° 0 mm 5 mps 711 mmHg 12%
12:00 +45°C° 0 mm 5 mps 711 mmHg 11%
13:00 +43°C° 0 mm 5 mps 711 mmHg 14%
14:00 +42°C° 0 mm 5 mps 710 mmHg 16%
15:00 +41°C° 0 mm 5 mps 710 mmHg 19%
16:00 +38°C° 0 mm 4 mps 710 mmHg 22%
17:00 +37°C° 0 mm 4 mps 710 mmHg 26%
18:00 +35°C° 0 mm 4 mps 710 mmHg 29%
19:00 +34°C° 0 mm 3 mps 710 mmHg 31%
20:00 +32°C° 0 mm 2 mps 710 mmHg 33%
21:00 +31°C° 0 mm 1 mps 710 mmHg 35%
22:00 +31°C° 0 mm 1 mps 710 mmHg 35%
23:00 +31°C° 0 mm 1 mps 710 mmHg 35%

17 August, Monday

Time Temperature Precipitation Wind Pressure Humidity
00:00 +30°C° 0 mm 1 mps 709 mmHg 35%
01:00 +30°C° 0 mm 1 mps 709 mmHg 35%
02:00 +30°C° 0 mm 1 mps 709 mmHg 34%
03:00 +30°C° 0 mm 1 mps 709 mmHg 34%
04:00 +30°C° 0 mm 2 mps 709 mmHg 31%
05:00 +31°C° 0 mm 2 mps 709 mmHg 29%
06:00 +31°C° 0 mm 2 mps 709 mmHg 26%
07:00 +35°C° 0 mm 4 mps 710 mmHg 22%
08:00 +39°C° 0 mm 5 mps 711 mmHg 18%
09:00 +41°C° 0 mm 6 mps 711 mmHg 14%
10:00 +42°C° 0 mm 6 mps 711 mmHg 13%
11:00 +44°C° 0 mm 6 mps 711 mmHg 13%
12:00 +45°C° 0 mm 6 mps 711 mmHg 12%
13:00 +44°C° 0 mm 6 mps 711 mmHg 15%
14:00 +44°C° 0 mm 6 mps 711 mmHg 17%
15:00 +42°C° 0 mm 5 mps 710 mmHg 19%
16:00 +40°C° 0 mm 4 mps 710 mmHg 25%
17:00 +37°C° 0 mm 3 mps 710 mmHg 31%
18:00 +35°C° 0 mm 2 mps 710 mmHg 37%
19:00 +32°C° 0 mm 2 mps 710 mmHg 44%
20:00 +30°C° 0 mm 2 mps 710 mmHg 51%
21:00 +29°C° 0 mm 1 mps 710 mmHg 57%
22:00 +28°C° 0 mm 1 mps 710 mmHg 58%
23:00 +28°C° 0 mm 1 mps 710 mmHg 59%

18 August, Tuesday

Time Temperature Precipitation Wind Pressure Humidity
00:00 +25°C° 0 mm 0 mps 709 mmHg 60%
01:00 +25°C° 0 mm 0 mps 709 mmHg 59%
02:00 +25°C° 0 mm 0 mps 709 mmHg 58%
03:00 +25°C° 0 mm 0 mps 708 mmHg 57%
04:00 +25°C° 0 mm 0 mps 709 mmHg 55%
05:00 +28°C° 0 mm 1 mps 709 mmHg 53%
06:00 +28°C° 0 mm 1 mps 709 mmHg 51%
07:00 +31°C° 0 mm 2 mps 710 mmHg 43%
08:00 +34°C° 0 mm 3 mps 710 mmHg 34%
09:00 +37°C° 0 mm 4 mps 711 mmHg 26%
10:00 +38°C° 0 mm 4 mps 711 mmHg 24%
11:00 +41°C° 0 mm 5 mps 711 mmHg 21%
12:00 +42°C° 0 mm 5 mps 711 mmHg 18%
13:00 +41°C° 0 mm 5 mps 711 mmHg 23%
14:00 +40°C° 0 mm 6 mps 710 mmHg 27%
15:00 +39°C° 0 mm 6 mps 710 mmHg 31%
16:00 +36°C° 0 mm 5 mps 710 mmHg 36%
17:00 +33°C° 0 mm 4 mps 709 mmHg 42%
18:00 +30°C° 0 mm 3 mps 709 mmHg 47%
19:00 +29°C° 0 mm 3 mps 709 mmHg 49%
20:00 +28°C° 0 mm 2 mps 710 mmHg 52%
21:00 +27°C° 0 mm 1 mps 710 mmHg 55%
22:00 +27°C° 0 mm 1 mps 710 mmHg 55%
23:00 +27°C° 0 mm 1 mps 709 mmHg 56%
Show more